カタログに戻る

NUSAT-50

NANCY ROMAN

運用中科学SSO
NORAD 60493·PAYLOAD·🇦🇷 Argentina

打ち上げ Aug 16, 2024 から Vandenberg Space Force Base

Loading…

次のパス (今後24時間)

TLE

最新Source: Space-Track

元期: Sep 14, 2026, 11:34 UTC

1 60493U 24149AB  26257.48243741  .00006976  00000-0  23919-3 0  9992
2 60493  97.3732 338.1568 0002112 208.2294 151.8833 15.30492643115780

AllMySatでNUSAT-50をリアルタイム追跡

Download on the App Store